Hourly Data Report for September 15, 2017

All times are specified in Local Standard Time (LST). Add 1 hour to adjust for Daylight Saving Time where and when it is observed.

GJOA HAVEN A
NUNAVUT

68°38'08.000" N
95°51'01.000" W
46.90 m
2302337
71597
YHK

Download Data

Hourly Data (September 2017)
Hourly Data Report for September 15, 2017
Temp Definition
°C
Dew Point Temp Definition
°C
Rel Hum Definition
%
Wind Dir Definition
10's deg

Wind Spd Definition
km/h
Visibility Definition
km
Stn Press Definition
kPa
Hmdx Definition


Wind Chill Definition


Weather Definition


TIME
00:00 Legend Double Dagger -2.6 -2.6 100 26 11 16.1 100.81   -7 LegendNANA
01:00 Legend Double Dagger -2.0 -2.0 100 25 18 4.8 100.78   -7 Fog
02:00 Legend Double Dagger -1.8 -1.8 100 24 17 1.0 100.75   -7 Snow
03:00 Legend Double Dagger -1.1 -1.1 100 22 15 1.0 100.70   -6 Moderate Snow
04:00 Legend Double Dagger -1.0 -1.0 100 22 17 1.2 100.67   -6 Fog
05:00 Legend Double Dagger -0.4 -0.4 100 19 17 1.2 100.61   -5 Fog
06:00 Legend Double Dagger -0.1 -0.1 100 18 18 0.6 100.59   -5 Freezing Fog
07:00 Legend Double Dagger 1.1 1.1 100 18 17 16.1 100.54     LegendNANA
08:00 Legend Double Dagger 1.3 1.3 100 18 18 4.8 100.49     Fog
09:00 Legend Double Dagger 0.9 0.9 100 14 18 0.6 100.45     Fog
10:00 Legend Double Dagger 1.3 1.3 100 14 18 3.6 100.43     Fog
11:00 Legend Double Dagger 2.5 2.5 100 14 18 16.1 100.41     LegendNANA
12:00 Legend Double Dagger 3.1 2.4 95 14 15 16.1 100.42     LegendNANA
13:00 Legend Double Dagger 3.5 2.5 93 14 17 16.1 100.43     LegendNANA
14:00 Legend Double Dagger 3.8 2.7 93 12 13 16.1 100.44     LegendNANA
15:00 Legend Double Dagger 3.9 2.9 93 10 13 16.1 100.50     LegendNANA
16:00 Legend Double Dagger 3.8 2.9 94 11 11 16.1 100.52     LegendNANA
17:00 Legend Double Dagger 3.9 3.2 95 11 9 16.1 100.55     LegendNANA
18:00 Legend Double Dagger 3.2 2.8 97 7 13 16.1 100.62     LegendNANA
19:00 Legend Double Dagger 2.0 1.9 99 5 13 16.1 100.67     LegendNANA
20:00 Legend Double Dagger 0.6 0.6 100 1 15 2.0 100.72     Fog
21:00 Legend Double Dagger 0.3 0.3 100 2 9 0.6 100.74     Fog
22:00 Legend Double Dagger -0.2 -0.2 100 34 9 1.2 100.78   -3 Fog
23:00 Legend Double Dagger 0.7 0.7 100 24 5 16.1 100.79     LegendNANA

Notes on Data Quality.

Legend

  • E = Estimated
  • M = Missing
  • NA = Not Available
  • ‡ = Partner data that is not subject to review by the National Climate Archives
Date modified: